[[{"header":{"parameterUnit":"m.s-1","parameterCategory":1,"la1":30.2991,"la2":30.254,"lo1":-89.0895,"lo2":-89.0444,"dy":0.0017,"dx":0.0017,"nx":28,"ny":28,"refTime":"2023-08-07T09:00:00:Z","depth":0,"parameterNumber":2,"parameterNumberName":"U-component_of_WINDS"},"data":[0,0,0,0,0,0,0,0,0,0,0,0,0,0,0,0,0,0,0,0,0,0,0,0,0,0,0,0,0,0,0,0,0,0,0,0,0,0,0,0,0,0,0,0,0,0,0,0,0,0,0,0,0,0,0,0,0,0,3.5964,3.5964,0,3.5949,3.5949,3.5948,3.5877,3.5876,3.5874,3.5872,3.5856,3.5857,3.5858,0,0,0,0,0,0,0,0,0,0,0,0,0,3.593,3.5931,3.5964,3.5964,3.5964,3.5949,3.5949,3.5948,3.5878,3.5875,3.5873,3.5872,3.5856,3.5857,3.5858,0,0,0,0,0,0,0,0,0,0,0,0,0,3.5933,3.5931,3.5964,3.5927,3.5923,3.5949,3.5949,3.5948,3.5878,3.5875,3.5873,3.5871,3.5855,3.5857,3.5858,3.5919,0,0,3.5864,3.5864,0,0,0,0,0,0,0,0,3.5933,3.5934,3.5932,3.5929,3.5925,3.5912,3.593,3.5938,3.5879,3.5895,3.5872,3.5869,3.5877,3.5876,3.5879,3.5918,3.5917,3.5864,3.5865,3.5865,3.5866,0,0,0,0,0,0,0,3.5933,3.5934,3.5958,3.5932,3.5928,3.591,3.5907,3.5932,3.59,3.5893,3.5888,3.5887,3.5874,3.5878,3.5878,3.5917,3.5864,3.5865,3.5866,3.5867,3.6001,3.6004,0,0,0,0,0,0,3.5938,3.5935,3.5958,3.5957,3.5923,3.5912,3.591,3.5919,3.59,3.5894,3.589,3.5884,3.5876,3.5876,3.5877,3.5943,3.5865,3.5867,3.5868,3.5999,3.6002,3.6004,0,0,0,0,0,0,3.5937,3.5941,3.5959,3.5945,3.5946,3.5916,3.5927,3.592,3.5923,3.5897,3.5891,3.5899,3.5874,3.5875,3.5908,3.5942,3.5868,3.5869,3.5996,3.6,3.6003,3.6078,0,0,0,0,0,0,3.5937,3.5941,3.5964,3.5946,3.5947,3.5991,3.5929,3.5922,3.5926,3.5919,3.5904,3.5899,3.5872,3.5906,3.591,3.5943,3.5871,3.5992,3.5997,3.6002,3.6073,3.6084,3.6094,0,0,0,0,0,3.5936,3.5987,3.5966,3.5969,3.5975,3.5993,3.5994,3.5962,3.593,3.5952,3.5934,3.5899,3.5939,3.591,3.5914,3.5948,3.599,3.5996,3.6001,3.6068,3.6082,3.6094,0,0,0,0,0,0,3.601,3.5984,3.596,3.6007,3.6003,3.5981,3.6008,3.5979,3.5984,3.5977,3.5937,3.5934,3.5973,3.5964,3.5933,3.6004,3.5958,3.5965,3.6007,3.6021,3.6031,3.6031,3.5872,0,0,0,0,0,3.6032,3.605,3.6025,3.6069,3.6068,3.6039,3.6046,3.6022,3.6016,3.6014,3.5999,3.5994,3.6005,3.6013,3.6022,3.6072,3.6066,3.6097,3.6108,3.6117,3.6122,3.6145,3.6158,3.6023,3.6023,3.6023,0,0,3.6078,3.6065,3.6079,3.6083,3.6077,3.6095,3.6038,3.606,3.6072,3.6017,3.6046,3.6036,3.6027,3.6069,3.6086,3.6063,3.6158,3.6125,3.6132,3.6132,3.6152,3.6165,3.6176,3.6027,3.6027,3.6026,0,0,3.6168,3.6162,3.6195,3.619,3.6182,3.6162,3.617,3.6153,3.6143,3.6172,3.6131,3.6145,3.6165,3.616,3.616,3.6247,3.6214,3.6252,3.6307,3.6329,3.634,3.6349,3.6376,3.6387,3.6258,3.6258,3.6258,0,3.6225,3.625,3.6217,3.624,3.6242,3.6193,3.6226,3.6223,3.6218,3.622,3.6194,3.6216,3.6208,3.6246,3.6267,3.627,3.6276,3.6252,3.6341,3.635,3.6358,3.6384,3.6394,3.6262,3.6262,3.6261,3.6261,0,3.6319,3.6337,3.6365,3.636,3.6366,3.6394,3.6363,3.6373,3.6349,3.6331,3.636,3.6349,3.6352,3.636,3.6337,3.6394,3.6379,3.6348,3.6301,3.6375,3.6399,3.6409,3.6268,3.6267,3.6266,3.6264,0,0,3.6454,3.643,3.644,3.6436,3.6423,3.6435,3.6461,3.6464,3.6472,3.6471,3.6489,3.6507,3.6477,3.6477,3.6453,3.6474,3.6539,3.6439,3.6438,3.6455,3.6596,3.6617,3.663,3.6518,3.652,3.6521,3.6596,0,3.6538,3.6579,3.6549,3.6594,3.6609,3.6563,3.6584,3.6578,3.6562,3.6571,3.6554,3.6566,3.6528,3.6527,3.6545,3.6527,3.6566,3.6522,3.6532,3.6533,3.6532,3.6642,3.6665,3.6736,3.6605,3.6607,3.6608,0,3.664,3.6641,3.6688,3.6669,3.6674,3.6694,3.6693,3.6704,3.6695,3.6682,3.6682,3.6652,3.6673,3.663,3.6658,3.6628,3.6631,3.6623,3.6625,3.6621,3.6572,3.6639,3.6758,3.6768,3.6623,3.6622,3.6621,0,3.6729,3.6743,3.6772,3.6771,3.675,3.6765,3.6757,3.6746,3.6749,3.6749,3.675,3.6753,3.6754,3.6756,3.6727,3.6698,3.6758,3.6712,3.6745,3.6746,3.6757,3.6756,3.6875,3.6765,3.6765,3.6765,3.6765,0,3.6823,3.6853,3.6811,3.6829,3.686,3.6825,3.6857,3.6844,3.6834,3.6848,3.6809,3.6822,3.6785,3.6794,3.6772,3.6796,3.6798,3.6786,3.6779,3.6788,3.6789,3.6786,3.6779,3.6768,3.6767,3.6767,3.6766,0,3.6927,3.6901,3.6928,3.6907,3.6902,3.6925,3.6906,3.692,3.6902,3.6919,3.6921,3.6893,3.6901,3.6873,3.6877,3.6862,3.6897,3.6884,3.69,3.6894,3.6927,3.6923,3.7046,3.7059,3.6945,3.6946,3.6947,0,3.6986,3.7008,3.6988,3.6993,3.6987,3.6998,3.7,3.6967,3.6971,3.6962,3.6977,3.6982,3.6984,3.6999,3.6978,3.6981,3.6965,3.7008,3.6965,3.6971,3.6961,3.6958,3.6959,3.7016,3.7017,3.7018,3.7019,0,3.7094,3.7079,3.7085,3.7085,3.7089,3.7088,3.7084,3.7092,3.7056,3.7062,3.707,3.7071,3.7075,3.7079,3.7077,3.7068,3.7036,3.7033,3.704,3.7047,3.7054,3.7047,3.692,3.703,3.7029,3.7028,3.7027,3.7027,3.7175,3.719,3.7177,3.7184,3.7178,3.7175,3.7186,3.7169,3.7175,3.7174,3.7155,3.7166,3.7154,3.7148,3.7142,3.7149,3.7129,3.714,3.7142,3.7145,3.7148,3.7056,3.7149,3.7149,3.7149,3.7148,3.7148,0,3.7276,3.7266,3.7273,3.7267,3.7272,3.7244,3.7238,3.7243,3.7253,3.7245,3.7248,3.7255,3.7259,3.7239,3.7239,3.7249,3.7234,3.725,3.7247,3.7244,3.7168,3.716,3.7261,3.7261,3.7261,3.7261,3.7261,3.7261,3.733,3.7353,3.7337,3.7357,3.7346,3.7356,3.7354,3.7351,3.7344,3.7354,3.7357,3.7343,3.733,3.7329,3.733,3.7324,3.7325,3.7344,3.7333,3.7261,3.725,3.724,3.7232,3.7346,3.7346,3.7407,3.7408,3.7408]},{"header":{"parameterUnit":"m.s-1","parameterCategory":1,"la1":30.2991,"la2":30.254,"lo1":-89.0895,"lo2":-89.0444,"dy":0.0017,"dx":0.0017,"nx":28,"ny":28,"refTime":"2023-08-07T09:00:00:Z","depth":0,"parameterNumber":3,"parameterNumberName":"V-component_of_WINDS"},"data":[0,0,0,0,0,0,0,0,0,0,0,0,0,0,0,0,0,0,0,0,0,0,0,0,0,0,0,0,0,0,0,0,0,0,0,0,0,0,0,0,0,0,0,0,0,0,0,0,0,0,0,0,0,0,0,0,0,0,6.4213,6.4214,0,6.433,6.4331,6.4333,6.429,6.4287,6.4284,6.4282,6.4395,6.4401,6.4406,0,0,0,0,0,0,0,0,0,0,0,0,0,6.3943,6.3949,6.4212,6.4214,6.4216,6.433,6.4331,6.4333,6.429,6.4287,6.4284,6.4281,6.4393,6.44,6.4406,0,0,0,0,0,0,0,0,0,0,0,0,0,6.406,6.395,6.4212,6.4208,6.4209,6.4329,6.4331,6.4333,6.4291,6.4287,6.4283,6.4279,6.4391,6.4399,6.4407,6.4537,0,0,6.4432,6.4436,0,0,0,0,0,0,0,0,6.4054,6.407,6.4207,6.4209,6.421,6.4291,6.4278,6.4401,6.4292,6.4259,6.4282,6.4277,6.4363,6.4374,6.4404,6.4542,6.4547,6.4433,6.4438,6.4442,6.4444,0,0,0,0,0,0,0,6.4046,6.4065,6.4259,6.4209,6.4211,6.4198,6.421,6.4301,6.4332,6.4262,6.4259,6.4274,6.4363,6.4396,6.4406,6.4549,6.4433,6.444,6.4445,6.4448,6.4796,6.48,0,0,0,0,0,0,6.4038,6.4058,6.4255,6.4262,6.4121,6.4206,6.4219,6.4269,6.4331,6.4337,6.4277,6.4272,6.4384,6.4397,6.441,6.4564,6.4442,6.4449,6.4454,6.4792,6.4797,6.4802,0,0,0,0,0,0,6.4032,6.4056,6.425,6.416,6.4183,6.4215,6.427,6.4273,6.4306,6.4343,6.4347,6.4306,6.4382,6.4399,6.4506,6.4567,6.4453,6.446,6.4787,6.4793,6.4799,6.4874,0,0,0,0,0,0,6.4025,6.4054,6.4106,6.4161,6.4189,6.4346,6.4274,6.4278,6.4321,6.4315,6.4371,6.4376,6.438,6.4494,6.4514,6.4577,6.4467,6.4781,6.479,6.4797,6.4866,6.4882,6.4896,0,0,0,0,0,6.4016,6.4121,6.4109,6.4133,6.4254,6.435,6.4365,6.437,6.4327,6.4377,6.44,6.4374,6.4558,6.4505,6.4527,6.4594,6.4777,6.4787,6.4797,6.486,6.4879,6.4896,0,0,0,0,0,0,6.407,6.4129,6.4115,6.4243,6.4292,6.4343,6.4407,6.4391,6.4452,6.4443,6.4443,6.4456,6.4566,6.459,6.4531,6.4721,6.4661,6.4675,6.4701,6.472,6.4735,6.4725,6.4474,0,0,0,0,0,6.4098,6.4173,6.4219,6.4327,6.4353,6.4376,6.4418,6.4417,6.4467,6.4487,6.4518,6.4565,6.4633,6.4678,6.4743,6.487,6.488,6.4926,6.4941,6.4953,6.4965,6.5032,6.5052,6.4833,6.4833,6.4833,0,0,6.4154,6.4195,6.4243,6.4339,6.4377,6.4453,6.4393,6.4476,6.4531,6.4499,6.4602,6.4626,6.4679,6.4796,6.4849,6.4819,6.5028,6.4966,6.4975,6.4981,6.5044,6.5064,6.5083,6.484,6.4839,6.4838,0,0,6.4295,6.4335,6.4429,6.4468,6.4527,6.4542,6.4564,6.4617,6.4633,6.4737,6.4713,6.4777,6.4895,6.4933,6.4968,6.5123,6.51,6.5143,6.5221,6.5286,6.5303,6.5318,6.5371,6.539,6.5156,6.5156,6.5156,0,6.4357,6.4473,6.4478,6.4563,6.4605,6.4581,6.4673,6.471,6.4787,6.4815,6.4782,6.4928,6.4962,6.5087,6.5124,6.5154,6.5177,6.5137,6.53,6.5316,6.533,6.538,6.54,6.5161,6.516,6.516,6.5159,0,6.4545,6.4625,6.4693,6.4769,6.4818,6.4907,6.4923,6.4972,6.4966,6.4983,6.5087,6.5128,6.5199,6.5229,6.5224,6.5352,6.5332,6.53,6.5239,6.5355,6.5402,6.5422,6.5167,6.5166,6.5164,6.5163,0,0,6.4724,6.4802,6.4826,6.4859,6.4922,6.4983,6.5069,6.5141,6.5182,6.5235,6.5305,6.5405,6.5375,6.5415,6.5413,6.5471,6.5587,6.5431,6.5432,6.5457,6.5728,6.575,6.5773,6.5573,6.5577,6.558,6.5723,0,6.4868,6.5022,6.5028,6.5167,6.5239,6.5217,6.5291,6.5336,6.5354,6.5416,6.5434,6.5505,6.5461,6.5485,6.554,6.5561,6.5641,6.5551,6.5635,6.5638,6.5622,6.5798,6.5823,6.5955,6.5741,6.5745,6.5747,0,6.5058,6.5118,6.5265,6.5316,6.5346,6.5413,6.5478,6.5539,6.5588,6.5597,6.5641,6.5631,6.5716,6.5654,6.5769,6.5707,6.5742,6.5757,6.5762,6.5769,6.5699,6.5807,6.5998,6.6017,6.5776,6.5774,6.5772,0,6.5171,6.5289,6.5391,6.5421,6.5483,6.553,6.5558,6.5604,6.5646,6.5703,6.5729,6.5794,6.5829,6.5878,6.5885,6.584,6.6,6.5938,6.6007,6.6007,6.604,6.6038,6.6238,6.6066,6.6066,6.6065,6.6065,0,6.5331,6.542,6.5443,6.5506,6.5604,6.561,6.5707,6.573,6.5771,6.5836,6.582,6.588,6.5887,6.5948,6.5954,6.6047,6.6063,6.607,6.607,6.6071,6.607,6.6092,6.6082,6.6071,6.6069,6.6068,6.6067,0,6.5473,6.5493,6.5602,6.5653,6.5667,6.5738,6.5779,6.5838,6.5854,6.5936,6.5955,6.598,6.6051,6.6063,6.6147,6.6151,6.6261,6.6253,6.6245,6.6243,6.631,6.6303,6.653,6.6559,6.637,6.6372,6.6374,0,6.5574,6.5642,6.57,6.5744,6.5774,6.5844,6.5887,6.5894,6.5939,6.6,6.6051,6.6121,6.6177,6.6292,6.6316,6.6379,6.6371,6.6446,6.638,6.6378,6.6369,6.6364,6.637,6.6458,6.646,6.6462,6.6463,0,6.5748,6.5754,6.5818,6.5886,6.5938,6.5991,6.6041,6.6077,6.609,6.6141,6.6215,6.6259,6.6345,6.6413,6.6476,6.6502,6.6484,6.6484,6.6503,6.6503,6.6495,6.6498,6.6278,6.6478,6.6477,6.6476,6.6475,6.6474,6.5871,6.5931,6.5981,6.6052,6.609,6.6137,6.6194,6.6218,6.6281,6.6352,6.6352,6.6432,6.6477,6.656,6.659,6.6651,6.6626,6.6654,6.6661,6.6667,6.6673,6.6487,6.6662,6.6662,6.6662,6.6661,6.6661,0,6.6043,6.6074,6.614,6.6211,6.6267,6.6248,6.6301,6.6348,6.642,6.6465,6.6521,6.6604,6.6671,6.67,6.6764,6.6808,6.6801,6.6824,6.682,6.6826,6.6692,6.6668,6.6828,6.6828,6.6828,6.6828,6.6828,6.6828,6.6139,6.6238,6.6249,6.6366,6.6395,6.6476,6.6508,6.6549,6.6585,6.668,6.6736,6.6755,6.6793,6.686,6.6919,6.6925,6.6949,6.6976,6.6978,6.6852,6.6835,6.6819,6.6797,6.6981,6.6981,6.7106,6.7108,6.7108]}]]